time, Switch, Flow(0), Analog(2)
yyyy/mm/dd HH:MM:SS.fff, True=FILTERED|False=TOTAL, L/min, V
2023/06/26 19:00:03.195, True, 4.311, 0.124895
2023/06/26 19:00:03.699, True, 3.648, 0.123598
2023/06/26 19:00:04.194, True, 2.696, 0.125124
2023/06/26 19:00:04.699, True, 2.321, 0.124285
2023/06/26 19:00:05.203, True, 1.658, 0.126116
2023/06/26 19:00:05.699, True, 2.022, 0.125734
2023/06/26 19:00:06.203, True, 1.658, 0.123827
2023/06/26 19:00:06.699, True, 2.025, 0.124437
2023/06/26 19:00:07.203, True, 1.986, 0.124895
2023/06/26 19:00:07.707, True, 1.990, 0.122301
2023/06/26 19:00:08.210, True, 1.990, 0.123674
2023/06/26 19:00:08.707, True, 1.685, 0.126116
2023/06/26 19:00:09.211, True, 1.990, 0.123064
2023/06/26 19:00:09.707, True, 2.022, 0.125505
2023/06/26 19:00:10.211, True, 1.989, 0.123217
2023/06/26 19:00:10.715, True, 1.990, 0.126116
2023/06/26 19:00:11.211, True, 1.685, 0.126879
2023/06/26 19:00:11.715, True, 1.990, 0.123369
2023/06/26 19:00:12.219, True, 1.990, 0.123980
2023/06/26 19:00:12.715, True, 2.022, 0.122683
2023/06/26 19:00:13.219, True, 1.990, 0.122988
2023/06/26 19:00:13.723, True, 1.990, 0.123751
2023/06/26 19:00:14.219, True, 2.023, 0.122454
2023/06/26 19:00:14.723, True, 1.989, 0.122454
2023/06/26 19:00:15.226, True, 1.989, 0.123522
2023/06/26 19:00:15.723, True, 2.024, 0.123903
2023/06/26 19:00:16.227, True, 2.319, 0.124361
2023/06/26 19:00:16.731, True, 1.990, 0.124208
2023/06/26 19:00:17.227, True, 1.686, 0.125124
2023/06/26 19:00:17.731, True, 1.988, 0.124895
2023/06/26 19:00:18.235, True, 1.990, 0.122377
2023/06/26 19:00:18.731, True, 2.022, 0.124971
2023/06/26 19:00:19.235, True, 1.991, 0.126040
2023/06/26 19:00:19.738, True, 1.657, 0.125277
2023/06/26 19:00:20.235, True, 2.021, 0.124285
2023/06/26 19:00:20.739, True, 1.990, 0.123598
2023/06/26 19:00:21.242, True, 1.991, 0.122911
2023/06/26 19:00:21.739, True, 1.687, 0.123217
2023/06/26 19:00:22.243, True, 1.986, 0.125505
2023/06/26 19:00:22.746, True, 1.990, 0.124437
2023/06/26 19:00:23.251, True, 1.989, 0.124971
2023/06/26 19:00:23.747, True, 1.685, 0.126116
2023/06/26 19:00:24.251, True, 1.990, 0.122911
2023/06/26 19:00:24.755, True, 1.990, 0.122301
2023/06/26 19:00:25.251, True, 2.022, 0.122301
2023/06/26 19:00:25.755, True, 1.990, 0.122911
2023/06/26 19:00:26.258, True, 1.990, 0.124361
2023/06/26 19:00:26.763, True, 1.989, 0.124056
2023/06/26 19:00:27.259, True, 2.022, 0.121767
2023/06/26 19:00:27.763, True, 1.989, 0.125963
2023/06/26 19:00:28.267, True, 1.658, 0.122683
2023/06/26 19:00:28.763, True, 2.022, 0.123827
2023/06/26 19:00:29.267, True, 1.990, 0.123751
2023/06/26 19:00:29.771, True, 1.992, 0.124895
2023/06/26 19:00:30.267, True, 1.683, 0.124514
2023/06/26 19:00:30.771, True, 1.991, 0.123674
2023/06/26 19:00:31.275, True, 1.988, 0.123903
2023/06/26 19:00:31.771, True, 1.685, 0.124514
2023/06/26 19:00:32.275, True, 1.990, 0.124514
2023/06/26 19:00:32.779, True, 1.990, 0.123598
2023/06/26 19:00:33.275, True, 2.022, 0.126268
2023/06/26 19:00:33.779, True, 1.657, 0.122835
2023/06/26 19:00:34.283, True, 1.991, 0.126574
2023/06/26 19:00:34.787, True, 1.988, 0.122911
2023/06/26 19:00:35.283, True, 1.685, 0.124971
2023/06/26 19:00:35.786, True, 1.989, 0.124666
2023/06/26 19:00:36.283, True, 2.022, 0.123369
2023/06/26 19:00:36.787, True, 1.992, 0.124743
2023/06/26 19:00:37.290, True, 1.989, 0.127031
2023/06/26 19:00:37.787, True, 1.683, 0.125734
2023/06/26 19:00:38.290, True, 1.990, 0.126192
2023/06/26 19:00:38.795, True, 1.658, 0.128481
2023/06/26 19:00:39.290, True, 2.023, 0.129625
2023/06/26 19:00:39.795, True, 1.988, 0.129625
2023/06/26 19:00:40.299, True, 1.658, 0.126802
2023/06/26 19:00:40.795, True, 2.022, 0.126650
2023/06/26 19:00:41.299, True, 1.658, 0.128557
2023/06/26 19:00:41.803, True, 1.990, 0.129397
2023/06/26 19:00:42.299, True, 2.022, 0.130007
2023/06/26 19:00:42.803, True, 1.658, 0.129854
2023/06/26 19:00:43.307, True, 1.991, 0.129549
2023/06/26 19:00:43.803, True, 1.686, 0.129397
2023/06/26 19:00:44.307, True, 1.988, 0.130617
2023/06/26 19:00:44.811, True, 1.990, 0.132830
2023/06/26 19:00:45.307, True, 1.685, 0.130694
2023/06/26 19:00:45.810, True, 1.993, 0.134279
2023/06/26 19:00:46.315, True, 1.986, 0.132906
2023/06/26 19:00:46.811, True, 2.022, 0.131991
2023/06/26 19:00:47.315, True, 1.990, 0.133288
2023/06/26 19:00:47.811, True, 2.022, 0.132677
2023/06/26 19:00:48.315, True, 1.990, 0.131533
2023/06/26 19:00:48.819, True, 1.991, 0.130999
2023/06/26 19:00:49.315, True, 2.021, 0.133898
2023/06/26 19:00:49.819, True, 1.989, 0.132677
2023/06/26 19:00:50.323, True, 1.990, 0.133974
2023/06/26 19:00:50.819, True, 1.685, 0.131075
2023/06/26 19:00:51.323, True, 1.990, 0.131609
2023/06/26 19:00:51.827, True, 1.658, 0.133898
2023/06/26 19:00:52.323, True, 2.023, 0.133593
2023/06/26 19:00:52.827, True, 1.989, 0.133364
2023/06/26 19:00:53.331, True, 1.990, 0.135882
2023/06/26 19:00:53.827, True, 1.685, 0.133059
2023/06/26 19:00:54.331, True, 1.990, 0.134661
2023/06/26 19:00:54.835, True, 1.990, 0.135271
2023/06/26 19:00:55.331, True, 2.023, 0.134203
2023/06/26 19:00:55.835, True, 1.988, 0.133364
2023/06/26 19:00:56.331, True, 1.685, 0.134356
2023/06/26 19:00:56.834, True, 1.989, 0.132982
2023/06/26 19:00:57.339, True, 1.990, 0.134203
2023/06/26 19:00:57.835, True, 1.684, 0.134279
2023/06/26 19:00:58.339, True, 1.990, 0.133593
2023/06/26 19:00:58.843, True, 1.990, 0.135882
2023/06/26 19:00:59.339, True, 2.022, 0.137255
2023/06/26 19:00:59.843, True, 2.321, 0.135195
2023/06/26 19:01:00.346, True, 1.990, 0.135119
2023/06/26 19:01:00.843, True, 2.021, 0.133059
2023/06/26 19:01:01.347, True, 1.990, 0.132830
2023/06/26 19:01:01.851, True, 1.990, 0.135042
2023/06/26 19:01:02.346, True, 2.022, 0.135119
2023/06/26 19:01:02.851, True, 1.659, 0.134127
2023/06/26 19:01:03.355, True, 2.320, 0.134127
2023/06/26 19:01:03.851, True, 1.685, 0.134890
2023/06/26 19:01:04.355, True, 1.990, 0.134813
2023/06/26 19:01:04.859, True, 1.993, 0.133593
2023/06/26 19:01:05.355, True, 2.018, 0.136950
2023/06/26 19:01:05.859, True, 1.992, 0.134203
2023/06/26 19:01:06.363, True, 1.656, 0.136034
2023/06/26 19:01:06.859, True, 2.022, 0.132982
2023/06/26 19:01:07.363, True, 1.990, 0.132601
2023/06/26 19:01:07.867, True, 1.990, 0.136568
2023/06/26 19:01:08.363, True, 2.022, 0.131914
2023/06/26 19:01:08.867, True, 1.990, 0.134661
2023/06/26 19:01:09.363, True, 2.021, 0.133974
2023/06/26 19:01:09.867, True, 1.990, 0.136263
2023/06/26 19:01:10.371, True, 1.990, 0.133211
2023/06/26 19:01:10.867, True, 2.023, 0.135653
2023/06/26 19:01:11.371, True, 1.992, 0.135195
2023/06/26 19:01:11.875, True, 2.317, 0.134661
2023/06/26 19:01:12.371, True, 2.022, 0.133593
2023/06/26 19:01:12.875, True, 1.990, 0.134127
2023/06/26 19:01:13.379, True, 1.989, 0.133745
2023/06/26 19:01:13.875, True, 2.022, 0.136797
2023/06/26 19:01:14.379, True, 1.990, 0.135271
2023/06/26 19:01:14.883, True, 1.658, 0.135424
2023/06/26 19:01:15.387, True, 1.658, 0.135958
2023/06/26 19:01:15.882, True, 2.025, 0.134737
2023/06/26 19:01:16.386, True, 1.987, 0.133211
2023/06/26 19:01:16.891, True, 1.989, 0.134585
2023/06/26 19:01:17.387, True, 1.685, 0.134813
2023/06/26 19:01:17.891, True, 1.990, 0.135729
2023/06/26 19:01:18.394, True, 1.990, 0.135195
2023/06/26 19:01:18.890, True, 2.022, 0.133288
2023/06/26 19:01:19.395, True, 1.990, 0.133059
2023/06/26 19:01:19.899, True, 1.990, 0.133211
2023/06/26 19:01:20.395, True, 1.685, 0.134432
2023/06/26 19:01:20.899, True, 1.990, 0.132753
2023/06/26 19:01:21.395, True, 1.685, 0.133898
2023/06/26 19:01:21.899, True, 1.989, 0.135271
2023/06/26 19:01:22.403, True, 1.990, 0.133135
2023/06/26 19:01:22.907, True, 1.990, 0.132753
2023/06/26 19:01:23.403, True, 1.685, 0.134508
2023/06/26 19:01:23.907, True, 1.990, 0.134966
2023/06/26 19:01:24.403, True, 2.022, 0.133440
2023/06/26 19:01:24.907, True, 1.991, 0.133288
2023/06/26 19:01:25.411, True, 1.989, 0.132601
2023/06/26 19:01:25.907, True, 1.685, 0.133364
2023/06/26 19:01:26.411, True, 1.990, 0.133288
2023/06/26 19:01:26.915, True, 1.990, 0.134661
2023/06/26 19:01:27.411, True, 2.022, 0.133898
2023/06/26 19:01:27.915, True, 1.658, 0.135195
2023/06/26 19:01:28.419, True, 1.990, 0.133745
2023/06/26 19:01:28.923, True, 1.991, 0.132601
2023/06/26 19:01:29.418, True, 2.022, 0.134127
2023/06/26 19:01:29.922, True, 1.990, 0.132982
2023/06/26 19:01:30.427, True, 1.656, 0.134432
2023/06/26 19:01:30.923, True, 2.022, 0.132219
2023/06/26 19:01:31.427, True, 1.658, 0.134356
2023/06/26 19:01:31.923, True, 2.022, 0.135805
2023/06/26 19:01:32.427, True, 1.658, 0.133898
2023/06/26 19:01:32.931, True, 1.993, 0.133593
2023/06/26 19:01:33.427, True, 2.019, 0.133669
2023/06/26 19:01:33.931, True, 1.993, 0.133288
2023/06/26 19:01:34.434, True, 1.986, 0.132372
2023/06/26 19:01:34.931, True, 2.022, 0.134813
2023/06/26 19:01:35.435, True, 1.994, 0.133822
2023/06/26 19:01:35.938, True, 1.657, 0.133898
2023/06/26 19:01:36.435, True, 2.018, 0.132982
2023/06/26 19:01:36.939, True, 1.992, 0.132677
2023/06/26 19:01:37.442, True, 1.987, 0.132219
2023/06/26 19:01:37.939, True, 1.685, 0.135271
2023/06/26 19:01:38.443, True, 1.990, 0.132525
2023/06/26 19:01:38.947, True, 1.658, 0.134432
2023/06/26 19:01:39.443, True, 2.022, 0.132448
2023/06/26 19:01:39.947, True, 1.658, 0.131991
2023/06/26 19:01:40.450, True, 1.990, 0.134737
2023/06/26 19:01:40.947, True, 2.022, 0.132601
2023/06/26 19:01:41.450, True, 1.993, 0.134737
2023/06/26 19:01:41.955, True, 1.986, 0.133440
2023/06/26 19:01:42.451, True, 2.022, 0.132830
2023/06/26 19:01:42.955, True, 1.991, 0.134508
2023/06/26 19:01:43.458, True, 1.988, 0.132601
2023/06/26 19:01:43.955, True, 2.022, 0.132830
2023/06/26 19:01:44.459, True, 1.657, 0.131914
2023/06/26 19:01:44.963, True, 1.990, 0.133211
2023/06/26 19:01:45.458, True, 2.025, 0.134051
2023/06/26 19:01:45.963, True, 1.987, 0.130770
2023/06/26 19:01:46.467, True, 1.992, 0.131456
2023/06/26 19:01:46.963, True, 2.019, 0.133135
2023/06/26 19:01:47.466, True, 1.990, 0.132906
2023/06/26 19:01:47.971, True, 1.990, 0.133059
2023/06/26 19:01:48.467, True, 2.024, 0.133440
2023/06/26 19:01:48.971, True, 1.987, 0.131685
2023/06/26 19:01:49.475, True, 1.990, 0.133288
2023/06/26 19:01:49.971, True, 2.023, 0.132906
2023/06/26 19:01:50.475, True, 1.989, 0.131380
2023/06/26 19:01:50.978, True, 1.989, 0.132296
2023/06/26 19:01:51.475, True, 2.022, 0.132982
2023/06/26 19:01:51.978, True, 1.990, 0.133669
2023/06/26 19:01:52.482, True, 1.990, 0.135653
2023/06/26 19:01:52.979, True, 1.685, 0.133593
2023/06/26 19:01:53.483, True, 1.990, 0.132982
2023/06/26 19:01:53.986, True, 1.990, 0.131838
2023/06/26 19:01:54.483, True, 2.022, 0.134279
2023/06/26 19:01:54.987, True, 1.989, 0.130312
2023/06/26 19:01:55.490, True, 1.990, 0.133364
2023/06/26 19:01:55.987, True, 2.022, 0.134890
2023/06/26 19:01:56.490, True, 1.990, 0.132906
2023/06/26 19:01:56.995, True, 2.321, 0.134051
2023/06/26 19:01:57.490, True, 1.685, 0.132753
2023/06/26 19:01:57.995, True, 1.990, 0.134661
2023/06/26 19:01:58.491, True, 2.022, 0.133059
2023/06/26 19:01:58.994, True, 1.990, 0.132143
2023/06/26 19:01:59.499, True, 1.990, 0.131991
2023/06/26 19:01:59.994, True, 2.022, 0.131456
2023/06/26 19:02:00.499, True, 1.989, 0.132067
2023/06/26 19:02:01.002, True, 1.990, 0.131228
2023/06/26 19:02:01.498, True, 2.022, 0.131456
2023/06/26 19:02:02.003, True, 1.658, 0.132753
2023/06/26 19:02:02.507, True, 1.990, 0.131838
2023/06/26 19:02:03.002, True, 2.021, 0.131609
2023/06/26 19:02:03.506, True, 1.990, 0.132906
2023/06/26 19:02:04.010, True, 1.992, 0.130694
2023/06/26 19:02:04.507, True, 2.019, 0.132143
2023/06/26 19:02:05.011, True, 1.990, 0.132830
2023/06/26 19:02:05.514, True, 1.658, 0.131685
2023/06/26 19:02:06.010, True, 2.024, 0.132067
2023/06/26 19:02:06.515, True, 1.988, 0.130922
2023/06/26 19:02:07.019, True, 1.990, 0.132525
2023/06/26 19:02:07.514, True, 1.686, 0.133364
2023/06/26 19:02:08.018, True, 1.990, 0.132219
2023/06/26 19:02:08.523, True, 1.655, 0.131991
2023/06/26 19:02:09.019, True, 2.025, 0.129931
2023/06/26 19:02:09.522, True, 1.990, 0.133745
2023/06/26 19:02:10.026, True, 1.655, 0.132677
2023/06/26 19:02:10.523, True, 2.022, 0.129625
2023/06/26 19:02:11.027, True, 1.660, 0.130312
2023/06/26 19:02:11.530, True, 1.991, 0.131991
2023/06/26 19:02:12.026, True, 2.018, 0.133440
2023/06/26 19:02:12.531, True, 1.989, 0.131228
2023/06/26 19:02:13.035, True, 1.990, 0.132601
2023/06/26 19:02:13.530, True, 2.023, 0.130922
2023/06/26 19:02:14.035, True, 1.989, 0.131838
2023/06/26 19:02:14.538, True, 1.990, 0.131991
2023/06/26 19:02:15.035, True, 2.022, 0.131914
2023/06/26 19:02:15.539, True, 1.989, 0.130159
2023/06/26 19:02:16.043, True, 1.990, 0.131838
2023/06/26 19:02:16.539, True, 2.021, 0.130617
2023/06/26 19:02:17.043, True, 1.990, 0.131914
2023/06/26 19:02:17.547, True, 1.993, 0.130694
2023/06/26 19:02:18.043, True, 2.021, 0.132906
2023/06/26 19:02:18.546, True, 1.656, 0.128710
2023/06/26 19:02:19.051, True, 1.990, 0.132296
2023/06/26 19:02:19.547, True, 2.022, 0.130846
2023/06/26 19:02:20.051, True, 1.990, 0.132143
2023/06/26 19:02:20.554, True, 1.658, 0.132448
2023/06/26 19:02:21.050, True, 2.022, 0.131304
2023/06/26 19:02:21.555, True, 1.991, 0.132296
2023/06/26 19:02:22.051, True, 1.684, 0.131533
2023/06/26 19:02:22.555, True, 1.989, 0.130541
2023/06/26 19:02:23.059, True, 1.989, 0.130465
2023/06/26 19:02:23.555, True, 2.022, 0.130922
2023/06/26 19:02:24.059, True, 1.990, 0.130846
2023/06/26 19:02:24.563, True, 1.990, 0.130999
2023/06/26 19:02:25.059, True, 2.022, 0.132525
2023/06/26 19:02:25.563, True, 2.321, 0.130617
2023/06/26 19:02:26.067, True, 1.990, 0.132219
2023/06/26 19:02:26.563, True, 2.022, 0.132067
2023/06/26 19:02:27.067, True, 1.990, 0.131609
2023/06/26 19:02:27.571, True, 1.990, 0.129931
2023/06/26 19:02:28.067, True, 2.022, 0.130999
2023/06/26 19:02:28.571, True, 1.989, 0.131914
2023/06/26 19:02:29.075, True, 2.321, 0.130007
2023/06/26 19:02:29.571, True, 2.022, 0.130465
2023/06/26 19:02:30.075, True, 1.990, 0.129091
2023/06/26 19:02:30.571, True, 2.022, 0.130083
2023/06/26 19:02:31.075, True, 1.990, 0.131685
2023/06/26 19:02:31.579, True, 1.989, 0.130922
2023/06/26 19:02:32.075, True, 2.022, 0.131075
2023/06/26 19:02:32.579, True, 1.990, 0.130922
2023/06/26 19:02:33.083, True, 2.321, 0.131533
2023/06/26 19:02:33.579, True, 1.685, 0.129168
2023/06/26 19:02:34.083, True, 1.993, 0.131914
2023/06/26 19:02:34.587, True, 1.986, 0.132143
2023/06/26 19:02:35.082, True, 2.025, 0.129931
2023/06/26 19:02:35.587, True, 1.986, 0.130694
2023/06/26 19:02:36.091, True, 1.990, 0.131914
2023/06/26 19:02:36.594, True, 1.990, 0.131380
2023/06/26 19:02:37.091, True, 2.022, 0.131533
2023/06/26 19:02:37.595, True, 1.658, 0.129015
2023/06/26 19:02:38.099, True, 1.990, 0.131991
2023/06/26 19:02:38.603, True, 1.990, 0.130541
2023/06/26 19:02:39.098, True, 1.685, 0.131380
2023/06/26 19:02:39.603, True, 1.990, 0.131304
2023/06/26 19:02:40.107, True, 1.658, 0.130694
2023/06/26 19:02:40.603, True, 1.685, 0.128786
2023/06/26 19:02:41.107, True, 1.990, 0.131075
2023/06/26 19:02:41.602, True, 1.685, 0.128862
2023/06/26 19:02:42.107, True, 1.990, 0.132143
2023/06/26 19:02:42.611, True, 1.990, 0.129244
2023/06/26 19:02:43.107, True, 1.685, 0.130541
2023/06/26 19:02:43.611, True, 1.990, 0.129931
2023/06/26 19:02:44.115, True, 1.990, 0.128557
2023/06/26 19:02:44.611, True, 2.022, 0.131228
2023/06/26 19:02:45.115, True, 1.990, 0.129931
2023/06/26 19:02:45.619, True, 1.990, 0.130465
2023/06/26 19:02:46.115, True, 2.022, 0.127947
2023/06/26 19:02:46.618, True, 1.658, 0.130465
2023/06/26 19:02:47.123, True, 1.990, 0.129778
2023/06/26 19:02:47.619, True, 2.022, 0.130083
2023/06/26 19:02:48.122, True, 1.992, 0.129473
2023/06/26 19:02:48.626, True, 1.656, 0.130159
2023/06/26 19:02:49.123, True, 2.022, 0.131151
2023/06/26 19:02:49.626, True, 1.989, 0.128634
2023/06/26 19:02:50.131, True, 1.990, 0.129702
2023/06/26 19:02:50.627, True, 2.023, 0.129091
2023/06/26 19:02:51.130, True, 1.988, 0.129397
2023/06/26 19:02:51.635, True, 1.659, 0.129931
2023/06/26 19:02:52.131, True, 2.020, 0.130770
2023/06/26 19:02:52.634, True, 1.989, 0.127642
2023/06/26 19:02:53.139, True, 1.660, 0.130236
2023/06/26 19:02:53.635, True, 2.022, 0.130159
2023/06/26 19:02:54.138, True, 1.656, 0.129168
2023/06/26 19:02:54.643, True, 1.990, 0.128557
2023/06/26 19:02:55.138, True, 2.022, 0.129702
2023/06/26 19:02:55.642, True, 1.989, 0.130999
2023/06/26 19:02:56.147, True, 1.659, 0.129854
2023/06/26 19:02:56.643, True, 2.020, 0.128328
2023/06/26 19:02:57.146, True, 1.989, 0.128405
2023/06/26 19:02:57.642, True, 2.022, 0.128557
2023/06/26 19:02:58.146, True, 1.658, 0.130083
2023/06/26 19:02:58.650, True, 1.990, 0.130159
2023/06/26 19:02:59.146, True, 2.022, 0.130388
2023/06/26 19:02:59.651, True, 1.992, 0.129168
2023/06/26 19:03:00.154, True, 1.656, 0.128710
2023/06/26 19:03:00.650, True, 2.022, 0.128634
2023/06/26 19:03:01.155, True, 1.990, 0.129397
2023/06/26 19:03:01.658, True, 1.990, 0.129473
2023/06/26 19:03:02.154, True, 1.685, 0.127031
2023/06/26 19:03:02.658, True, 1.991, 0.128862
2023/06/26 19:03:03.162, True, 1.988, 0.128710
2023/06/26 19:03:03.658, True, 1.685, 0.128710
2023/06/26 19:03:04.162, True, 1.990, 0.130388
2023/06/26 19:03:04.666, True, 1.990, 0.130083
2023/06/26 19:03:05.162, True, 1.685, 0.128862
2023/06/26 19:03:05.666, True, 1.993, 0.127184
2023/06/26 19:03:06.171, True, 1.987, 0.130770
2023/06/26 19:03:06.666, True, 2.022, 0.128939
2023/06/26 19:03:07.170, True, 1.658, 0.126802
2023/06/26 19:03:07.674, True, 1.990, 0.129015
2023/06/26 19:03:08.170, True, 2.022, 0.127184
2023/06/26 19:03:08.674, True, 1.993, 0.128634
2023/06/26 19:03:09.178, True, 1.656, 0.127871
2023/06/26 19:03:09.674, True, 2.022, 0.128939
2023/06/26 19:03:10.178, True, 1.990, 0.129625
2023/06/26 19:03:10.682, True, 2.321, 0.127642
2023/06/26 19:03:11.178, True, 2.022, 0.129397
2023/06/26 19:03:11.682, True, 1.658, 0.128634
2023/06/26 19:03:12.186, True, 1.989, 0.130846
2023/06/26 19:03:12.683, True, 2.022, 0.128176
2023/06/26 19:03:13.186, True, 1.992, 0.129854
2023/06/26 19:03:13.690, True, 1.989, 0.129549
2023/06/26 19:03:14.186, True, 1.683, 0.130236
2023/06/26 19:03:14.690, True, 1.990, 0.131151
2023/06/26 19:03:15.194, True, 1.990, 0.129549
2023/06/26 19:03:15.690, True, 2.022, 0.127642
2023/06/26 19:03:16.194, True, 1.990, 0.129625
2023/06/26 19:03:16.698, True, 1.990, 0.129244
2023/06/26 19:03:17.194, True, 1.685, 0.128481
2023/06/26 19:03:17.698, True, 1.990, 0.127718
2023/06/26 19:03:18.202, True, 1.658, 0.128252
2023/06/26 19:03:18.698, True, 2.022, 0.127871
2023/06/26 19:03:19.202, True, 1.990, 0.129625
2023/06/26 19:03:19.706, True, 1.989, 0.129854
2023/06/26 19:03:20.202, True, 2.022, 0.128099
2023/06/26 19:03:20.706, True, 1.990, 0.128099
2023/06/26 19:03:21.210, True, 2.321, 0.126726
2023/06/26 19:03:21.706, True, 2.022, 0.128862
2023/06/26 19:03:22.210, True, 1.990, 0.128557
2023/06/26 19:03:22.714, True, 1.658, 0.127413
2023/06/26 19:03:23.210, True, 1.685, 0.128557
2023/06/26 19:03:23.714, True, 1.990, 0.128862
2023/06/26 19:03:24.218, True, 1.990, 0.129549
2023/06/26 19:03:24.714, True, 1.686, 0.130541
2023/06/26 19:03:25.218, True, 1.989, 0.129015
2023/06/26 19:03:25.722, True, 1.658, 0.129015
2023/06/26 19:03:26.226, True, 1.989, 0.132448
2023/06/26 19:03:26.722, True, 1.685, 0.130312
2023/06/26 19:03:27.226, True, 1.989, 0.126802
2023/06/26 19:03:27.722, True, 2.022, 0.127718
2023/06/26 19:03:28.226, True, 1.990, 0.127642
2023/06/26 19:03:28.730, True, 1.990, 0.129091
2023/06/26 19:03:29.226, True, 2.022, 0.128710
2023/06/26 19:03:29.730, True, 1.658, 0.128328
2023/06/26 19:03:30.234, True, 1.990, 0.129091
2023/06/26 19:03:30.730, True, 2.022, 0.128786
2023/06/26 19:03:31.234, True, 1.658, 0.128176
2023/06/26 19:03:31.738, True, 1.990, 0.128786
2023/06/26 19:03:32.234, True, 1.685, 0.127642
2023/06/26 19:03:32.738, True, 1.990, 0.129244
2023/06/26 19:03:33.242, True, 1.990, 0.129168
2023/06/26 19:03:33.738, True, 1.685, 0.131304
2023/06/26 19:03:34.241, True, 1.989, 0.127947
2023/06/26 19:03:34.746, True, 1.989, 0.129473
2023/06/26 19:03:35.242, True, 1.685, 0.127794
2023/06/26 19:03:35.746, True, 1.994, 0.127413
2023/06/26 19:03:36.249, True, 1.989, 0.131228
2023/06/26 19:03:36.745, True, 1.682, 0.130312
2023/06/26 19:03:37.250, True, 1.991, 0.127642
2023/06/26 19:03:37.746, True, 2.024, 0.129168
2023/06/26 19:03:38.250, True, 1.985, 0.128634
2023/06/26 19:03:38.754, True, 1.990, 0.128328
2023/06/26 19:03:39.250, True, 2.021, 0.127947
2023/06/26 19:03:39.754, True, 1.658, 0.128023
2023/06/26 19:03:40.258, True, 1.990, 0.128710
2023/06/26 19:03:40.754, True, 1.686, 0.127031
2023/06/26 19:03:41.258, True, 1.988, 0.129549
2023/06/26 19:03:41.762, True, 1.658, 0.127947
2023/06/26 19:03:42.258, True, 2.022, 0.127337
2023/06/26 19:03:42.762, True, 1.991, 0.126192
2023/06/26 19:03:43.266, True, 1.657, 0.128786
2023/06/26 19:03:43.762, True, 2.021, 0.127794
2023/06/26 19:03:44.266, True, 1.990, 0.128634
2023/06/26 19:03:44.770, True, 1.660, 0.128786
2023/06/26 19:03:45.266, True, 2.018, 0.128176
2023/06/26 19:03:45.770, True, 1.990, 0.126955
2023/06/26 19:03:46.274, True, 1.993, 0.127260
2023/06/26 19:03:46.770, True, 2.020, 0.126040
2023/06/26 19:03:47.274, True, 1.988, 0.130465
2023/06/26 19:03:47.778, True, 1.658, 0.130770
2023/06/26 19:03:48.274, True, 2.022, 0.127642
2023/06/26 19:03:48.778, True, 1.660, 0.128252
2023/06/26 19:03:49.282, True, 1.987, 0.126268
2023/06/26 19:03:49.786, True, 1.990, 0.127642
2023/06/26 19:03:50.282, True, 1.684, 0.128786
2023/06/26 19:03:50.786, True, 1.990, 0.125963
2023/06/26 19:03:51.290, True, 1.990, 0.128023
2023/06/26 19:03:51.786, True, 2.022, 0.125963
2023/06/26 19:03:52.290, True, 1.990, 0.127489
2023/06/26 19:03:52.794, True, 1.990, 0.125582
2023/06/26 19:03:53.290, True, 2.022, 0.126574
2023/06/26 19:03:53.794, True, 2.321, 0.128328
2023/06/26 19:03:54.290, True, 2.022, 0.129397
2023/06/26 19:03:54.794, True, 1.990, 0.128252
2023/06/26 19:03:55.298, True, 1.990, 0.128023
2023/06/26 19:03:55.794, True, 2.022, 0.128939
2023/06/26 19:03:56.298, True, 2.324, 0.128099
2023/06/26 19:03:56.802, True, 1.987, 0.127947
2023/06/26 19:03:57.298, True, 2.022, 0.128099
2023/06/26 19:03:57.802, True, 1.990, 0.127718
2023/06/26 19:03:58.306, True, 1.990, 0.129091
2023/06/26 19:03:58.802, True, 1.685, 0.127565
2023/06/26 19:03:59.306, True, 1.658, 0.127031
2023/06/26 19:03:59.802, True, 2.022, 0.127260
2023/06/26 19:04:00.306, True, 1.990, 0.128176
2023/06/26 19:04:00.810, True, 1.990, 0.127718
2023/06/26 19:04:01.306, True, 1.685, 0.128710
2023/06/26 19:04:01.810, True, 1.989, 0.127947
2023/06/26 19:04:02.314, True, 1.659, 0.127413
2023/06/26 19:04:02.810, True, 2.020, 0.128328
2023/06/26 19:04:03.314, True, 1.658, 0.130388
2023/06/26 19:04:03.810, True, 2.022, 0.125582
2023/06/26 19:04:04.314, True, 1.658, 0.128176
2023/06/26 19:04:04.818, True, 1.989, 0.129091
2023/06/26 19:04:05.314, True, 2.022, 0.128252
2023/06/26 19:04:05.818, True, 1.989, 0.128176
2023/06/26 19:04:06.314, True, 2.022, 0.126116
2023/06/26 19:04:06.818, True, 1.990, 0.127565
2023/06/26 19:04:07.322, True, 1.990, 0.127260
2023/06/26 19:04:07.818, True, 2.022, 0.127108
2023/06/26 19:04:08.322, True, 1.658, 0.126879
2023/06/26 19:04:08.826, True, 1.990, 0.126497
2023/06/26 19:04:09.321, True, 1.684, 0.126802
2023/06/26 19:04:09.826, True, 1.992, 0.127642
2023/06/26 19:04:10.330, True, 1.987, 0.127108
2023/06/26 19:04:10.826, True, 2.025, 0.128634
2023/06/26 19:04:11.330, True, 1.986, 0.130694
2023/06/26 19:04:11.834, True, 1.990, 0.126879
2023/06/26 19:04:12.330, True, 2.022, 0.128481